Kuchera_Ratio
6.7 4.2 4.4 6.6 6.3 6.0 8.6 5.9 13.0 5.2 4.0 0.0 0.0 0.0 0.0 0.0 0.0 0.0 0.0 0.0 0.0 0.0 0.0 0.0 0.0 0.0 0.0 0.0 0.0 0.0 0.0 0.0 0.0 0.0 0.0 0.0 0.0 0.0 0.0 0.0 0.0 0.0 0.0 0.0
9.1 5.8 6.1 8.7 5.3 4.8 4.3 2.9 2.7 1.0 3.1 0.0 0.0 0.0 0.0 0.0 0.0 0.0 0.0 0.0 0.0 0.0 0.0 0.0 0.0 0.0 0.0 0.0 0.0 0.0 0.0 0.0 0.0 0.0 0.0 0.0 0.0 0.0 0.0 0.0 0.0 0.0 0.4 0.8
12.9 7.0 7.7 12.2 4.4 3.2 3.5 1.0 0.0 6.3 0.0 0.0 0.0 0.0 0.0 0.0 0.0 0.0 0.0 0.0 0.0 0.0 0.0 0.0 0.0 0.0 0.0 0.0 0.0 0.0 0.0 0.0 0.0 0.0 0.0 0.0 0.0 0.0 0.6 1.8 1.6 2.8 3.3 2.9
13.5 10.1 15.1 0.9 0.0 0.0 0.0 0.0 0.0 0.0 0.0 0.0 0.0 0.0 0.0 0.0 0.0 0.0 0.0 0.0 0.0 0.0 0.0 0.0 0.0 0.0 0.0 0.0 0.0 0.0 0.0 0.0 0.0 0.0 0.0 0.0 1.0 2.8 3.0 2.3 3.7 4.9 6.1 3.8
13.1 14.1 6.7 0.0 0.0 0.0 0.8 1.7 0.0 0.0 0.0 0.0 0.0 0.0 0.7 0.0 0.0 0.0 0.0 0.0 0.0 0.0 0.0 0.0 0.0 0.0 0.0 0.0 0.0 0.0 1.0 1.0 0.2 0.8 1.9 2.8 5.5 6.7 6.3 6.5 7.1 5.3 3.0 3.7
9.7 14.6 13.5 0.0 0.0 0.0 0.0 5.4 0.0 0.0 0.0 0.0 0.0 0.5 1.5 1.0 0.0 0.0 0.0 0.0 0.0 0.0 0.0 0.0 0.0 0.0 0.0 0.3 1.0 1.9 2.6 3.4 2.0 3.2 6.2 6.3 6.4 7.2 7.5 4.9 3.7 1.2 1.6 2.7
9.6 11.7 6.3 0.0 0.0 0.0 8.6 1.5 0.0 0.0 0.0 0.0 0.0 0.1 0.0 0.0 0.4 0.0 0.0 0.0 0.0 0.0 0.7 0.1 0.0 0.0 2.0 3.9 5.9 5.3 5.5 5.3 3.8 3.8 5.7 6.8 7.4 5.0 4.2 3.3 2.8 4.1 4.9 5.5
7.4 10.6 13.3 0.0 0.0 1.3 0.0 0.0 0.0 0.0 0.0 0.0 0.0 0.0 0.0 0.0 0.5 0.4 0.7 0.9 1.9 4.8 5.5 3.6 0.6 2.7 5.6 7.6 5.5 5.5 5.2 5.1 6.7 6.2 4.1 4.4 5.0 4.8 4.4 4.6 6.0 7.3 8.1 9.3
3.7 4.1 0.0 0.0 0.0 0.0 0.0 0.0 0.0 0.0 0.0 0.0 0.0 0.0 0.0 0.6 1.9 2.2 2.2 3.8 3.6 5.2 6.6 6.0 3.1 2.7 6.8 6.2 5.2 5.4 6.0 7.2 6.9 3.7 2.9 5.3 4.9 6.1 6.8 7.2 7.9 9.6 10.4 12.1
0.0 0.0 0.0 0.0 0.0 0.0 0.0 0.0 0.0 0.0 0.0 0.0 0.0 0.0 0.0 0.4 0.0 0.4 0.3 1.3 1.1 2.7 4.5 5.7 2.4 2.9 5.3 4.7 4.6 3.6 4.0 5.8 5.8 5.9 6.8 6.3 6.5 7.2 8.1 9.2 10.7 12.2 12.4 12.7
0.0 0.0 0.0 0.0 0.0 0.0 0.0 0.0 0.0 0.0 0.0 0.0 0.0 0.0 0.0 0.0 0.0 0.3 0.3 0.0 0.0 2.0 2.8 2.8 0.8 1.8 1.9 2.3 3.4 5.3 6.1 6.6 7.0 7.4 7.6 8.4 9.0 8.7 9.3 10.0 9.9 12.1 12.8 12.9
0.0 0.0 0.0 0.0 0.0 0.0 0.0 0.0 0.0 0.0 0.0 0.0 0.0 0.0 0.1 0.0 0.0 0.0 1.5 1.4 2.4 2.4 2.3 1.6 1.0 1.5 1.9 2.8 2.5 4.4 6.7 7.5 7.9 8.0 8.6 8.9 9.7 10.2 2.5 2.5 1.5 2.5 3.1 7.6
0.0 0.0 0.0 0.0 0.0 0.0 0.0 0.0 0.0 0.0 0.0 0.0 0.0 0.0 0.0 0.6 0.0 0.0 1.4 2.0 2.5 2.7 2.2 1.5 2.0 3.2 2.8 2.9 3.2 4.9 5.7 7.1 8.1 8.8 9.6 10.4 11.6 12.4 12.8 12.1 5.2 4.5 4.3 4.5
0.0 0.0 0.0 0.0 0.0 0.0 0.0 0.0 0.0 0.0 0.0 0.0 0.0 0.0 0.0 1.5 0.2 2.2 2.8 1.7 1.0 1.5 2.7 2.7 3.8 4.7 4.7 3.9 4.5 6.1 7.6 6.9 8.7 10.3 11.5 12.5 13.1 13.7 13.8 14.5 15.0 14.6 11.0 8.4
0.0 0.0 0.0 0.0 0.0 0.0 0.0 0.0 0.0 0.0 0.0 0.0 0.0 0.0 1.5 3.3 4.0 3.5 1.7 0.7 1.3 2.9 4.1 4.6 5.3 6.4 5.7 5.0 5.8 7.5 8.6 10.1 11.4 12.4 12.7 13.1 13.5 14.0 14.4 14.8 14.7 15.5 15.5 13.3
0.0 0.0 0.0 0.0 0.0 0.0 0.0 0.0 0.0 0.0 0.0 0.0 1.0 2.1 3.3 5.0 4.5 2.9 2.6 2.4 4.7 6.2 6.3 6.1 6.8 7.8 7.0 6.9 8.3 9.7 11.0 9.1 12.5 13.0 13.2 13.6 14.0 14.4 14.8 14.7 15.1 15.9 16.3 16.3
0.4 0.0 0.0 0.0 0.0 0.0 0.0 0.0 0.0 0.0 0.0 0.0 0.9 2.3 3.4 4.5 5.2 5.7 5.8 5.3 5.3 5.8 6.7 7.0 7.8 8.8 8.4 8.7 9.5 11.0 11.8 12.3 10.3 12.9 13.3 13.9 14.1 14.5 14.7 15.2 16.0 16.4 16.8 15.0
0.0 0.0 0.0 0.0 0.0 0.0 0.0 0.0 0.0 0.0 0.0 0.8 0.8 1.2 2.4 3.8 4.5 5.6 7.4 7.3 7.4 8.8 8.6 8.6 9.2 9.8 10.0 10.2 10.8 11.5 12.1 12.3 12.6 13.2 13.7 14.0 14.4 15.0 15.3 15.9 16.6 17.1 17.1 15.5
0.0 0.0 0.0 0.0 0.0 0.0 0.0 0.0 0.0 0.0 1.6 0.7 0.0 1.3 2.8 4.6 5.8 6.4 7.5 8.2 8.7 8.2 9.4 10.4 6.7 10.2 10.8 11.3 11.4 11.8 12.0 12.6 13.2 13.8 13.9 14.3 14.9 15.5 16.0 16.6 17.2 17.4 17.5 16.4
0.0 0.0 0.0 0.0 0.0 0.0 0.0 0.0 0.6 0.8 0.3 0.5 1.2 2.3 3.3 5.0 6.3 6.7 7.5 7.5 6.9 7.3 8.5 9.4 10.1 11.1 11.1 10.9 10.9 12.1 12.6 13.1 13.7 14.0 14.3 14.8 15.4 16.1 16.7 16.2 16.5 17.0 17.5 16.6
0.3 0.0 0.0 0.0 0.0 0.0 0.0 0.0 0.1 0.8 0.1 0.6 1.5 2.0 3.3 4.8 6.3 6.6 7.5 8.1 8.9 9.2 9.4 8.9 10.7 11.0 11.6 11.9 12.2 12.5 13.0 13.6 14.0 14.3 14.7 15.3 15.9 16.6 17.5 18.1 18.2 17.5 17.4 17.1
2.0 0.3 0.0 0.0 0.0 0.4 0.4 0.8 1.2 1.4 1.5 2.0 2.0 3.3 4.2 5.2 6.2 7.3 7.6 6.5 7.5 5.9 9.4 10.2 11.1 11.4 11.7 11.2 12.5 12.9 13.5 13.9 14.2 14.6 15.0 15.5 16.3 17.2 17.9 18.2 18.7 18.9 18.8 19.2
3.8 2.8 1.5 0.3 0.9 1.0 1.9 2.7 2.9 2.9 2.4 2.2 2.4 2.8 3.9 4.4 4.9 6.2 6.4 8.4 9.2 8.6 10.0 11.2 11.6 6.2 7.3 12.4 12.8 13.3 13.8 14.0 14.3 14.7 15.2 16.1 16.9 17.6 18.1 18.4 18.7 19.0 19.0 19.1
3.8 3.9 4.2 3.4 2.7 3.4 4.1 4.3 4.8 4.9 4.7 4.2 4.1 4.4 4.1 5.2 6.1 6.5 7.5 8.0 8.0 8.3 10.9 11.9 7.9 5.7 11.4 12.8 13.1 13.6 13.7 14.2 14.6 15.0 15.5 16.4 17.3 17.9 18.2 18.5 18.6 19.0 19.1 19.0
4.8 4.3 4.2 4.8 4.5 4.3 5.3 5.9 6.6 6.7 6.4 6.3 6.6 6.1 5.8 6.1 5.4 5.7 7.9 8.7 6.1 10.2 11.1 5.6 5.3 7.3 12.7 13.2 13.6 14.0 14.1 14.4 14.9 15.5 16.2 17.1 17.7 18.0 18.1 18.3 18.7 18.9 18.6 18.5
5.4 4.9 4.5 4.7 5.1 6.2 6.6 8.0 8.2 8.1 7.6 7.1 7.1 7.4 7.3 7.8 8.3 8.4 8.4 9.3 9.7 10.7 11.9 12.2 12.5 12.6 13.3 13.6 13.9 14.1 14.4 14.9 15.3 15.9 16.5 17.3 17.6 17.8 17.9 18.1 18.5 18.4 18.1 17.7
7.9 6.8 6.0 5.7 6.4 6.7 7.6 8.3 8.7 9.7 9.0 9.6 8.4 7.7 8.2 8.6 9.1 9.5 9.9 9.4 10.7 11.6 12.3 12.6 12.9 13.3 13.5 13.9 14.0 14.4 14.8 15.1 15.6 16.3 16.9 17.2 17.5 17.6 17.7 18.0 17.9 17.7 17.3 17.0